#timestamp,LO_Frequency,Hit,StdDev 
1568826015.6,286047004.5,N
1568826035.4,286047005.4,N
1568826055.2,286047005.5,N
1568826075.1,286047003.3,N
1568826076.0,286047003.3,N
1568826095.8,286047004.1,N
1568826115.7,286047002.9,N
1568826135.5,286047005.9,Y
1568826155.3,286047000.0,P
1568826175.2,286047000.0,N
1568826195.0,286047001.9,N
1568826195.9,286047001.9,N
1568826215.7,286046999.9,N
1568826235.6,286047001.8,N
1568826255.4,286047004.3,Y
1568826275.3,286047001.9,P
1568826295.1,286047000.2,N
1568826296.0,286047000.2,N
1568826315.8,286046999.9,N
1568826335.7,286047002.0,N
1568826355.5,286047004.0,Y
1568826375.4,286047004.1,P
1568826395.2,286047004.1,N
1568826415.0,286047004.0,N
1568826415.9,286047004.0,N
1568826435.8,286047004.1,Y
1568826455.6,286046998.5,P
1568826475.5,286047000.9,N
1568826495.3,286047000.4,N
1568826515.1,286046998.6,N
1568826535.9,286046998.9,N
1568826555.7,286046999.1,N
1568826575.5,286046998.6,N
1568826595.4,286046997.9,N
1568826615.2,286046995.7,N
1568826635.1,286046995.1,N
1568826636.0,286046995.1,N
1568826655.8,286046999.3,N
1568826675.6,286046998.3,N
1568826695.5,286046998.7,N
1568826715.3,286046997.5,N
1568826735.1,286046991.7,Y
1568826755.9,286046995.9,P
1568826775.7,286046997.9,N
1568826795.6,286046996.4,P
1568826815.4,286046996.2,Y
1568826835.2,286046999.3,P
1568826855.1,286046996.8,P
1568826856.0,286046996.8,N
1568826875.8,286046997.6,N
1568826895.7,286046995.5,Y
1568826915.5,286046997.6,P
1568826935.3,286046995.0,P
1568826955.2,286046993.6,P
1568826975.9,286046990.2,Y
1568826995.7,286046993.7,P
1568827015.6,286046994.8,P
1568827035.4,286046995.8,P
1568827055.3,286046998.7,N
1568827075.1,286046995.9,N
1568827076.0,286046995.9,N
1568827095.8,286046996.1,N
1568827115.7,286046996.1,N
1568827135.5,286046995.1,Y
1568827155.3,286047004.4,P
1568827175.2,286047005.3,N
1568827195.0,286047009.1,N
1568827195.9,286047009.1,N
1568827215.8,286047012.3,N
1568827235.6,286047014.0,N
1568827255.4,286047015.0,N
1568827275.3,286047014.0,N
1568827295.1,286047012.6,N
1568827315.8,286047013.2,N
1568827335.7,286047014.7,N
1568827355.5,286047015.3,N
1568827375.4,286047014.3,N
1568827395.2,286047014.7,N
1568827415.0,286047011.4,N
1568827415.9,286047011.4,N
1568827435.8,286047011.9,N
1568827455.6,286047013.5,N
1568827475.4,286047018.5,Y
1568827495.3,286047010.3,P
1568827515.1,286047013.5,P
1568827535.9,286047016.3,P
1568827555.7,286047016.5,Y
1568827575.5,286047002.6,P
1568827595.4,286046998.8,N
1568827615.2,286046995.0,N
1568827635.0,286046995.8,N
1568827636.0,286046995.8,N
1568827655.8,286046999.2,N
1568827675.6,286047001.3,N
1568827695.5,286047008.5,N
1568827715.3,286047015.1,N
1568827735.1,286047016.0,N
1568827755.9,286047018.1,N
1568827775.7,286047022.6,N
1568827795.6,286047026.0,N
1568827815.4,286047030.2,N
1568827835.2,286047033.7,N
1568827855.1,286047036.1,N
1568827856.0,286047036.1,N
1568827875.8,286047033.8,N
1568827895.6,286047033.7,N
1568827915.5,286047034.4,N
1568827935.3,286047034.8,N
1568827955.2,286047034.1,N
1568827975.9,286047033.7,N
1568827995.7,286047033.3,N
1568828015.6,286047037.7,N
1568828035.4,286047038.2,N
1568828055.2,286047038.2,N
1568828075.1,286047044.3,N
1568828076.0,286047044.3,N
1568828095.8,286047044.8,N
1568828115.7,286047048.9,N
1568828135.5,286047046.2,N
1568828155.3,286047050.6,Y
1568828175.2,286047024.8,P
1568828195.0,286047026.4,P
1568828195.9,286047026.4,P
1568828215.7,286047037.5,Y
1568828235.6,286046997.3,P
1568828255.4,286046999.3,N
1568828275.3,286046996.5,N
1568828295.1,286046999.6,N
1568828296.0,286046999.6,N
1568828315.8,286046997.3,N
1568828335.7,286046998.1,N
1568828355.5,286046999.3,N
1568828375.3,286046999.0,N
1568828395.2,286047000.8,N
1568828415.0,286047002.6,N
1568828415.9,286047002.6,N
1568828435.8,286047004.1,N
1568828455.6,286047004.8,N
1568828475.4,286047003.2,N
1568828495.3,286047002.0,N
1568828515.1,286047004.3,N
1568828535.8,286047000.3,N
1568828555.7,286046998.5,N
1568828575.5,286047002.8,N
1568828595.4,286047005.2,N
1568828615.2,286047006.9,N
1568828635.0,286047006.6,N
1568828635.9,286047006.6,N
1568828655.8,286047010.0,N
1568828675.6,286047015.3,N
1568828695.4,286047011.9,N
1568828715.3,286047017.4,N
1568828735.1,286047018.2,N
1568828755.9,286047013.8,N
1568828775.7,286047010.0,N
1568828795.5,286047002.9,N
1568828815.4,286046999.8,N
1568828835.2,286046998.8,N
1568828855.0,286046997.8,N
1568828856.0,286046997.8,N
1568828875.8,286046997.8,N
1568828895.6,286046996.7,N
1568828915.5,286047000.7,N
1568828935.3,286046998.6,N
1568828955.1,286046998.4,N
1568828975.9,286046999.6,N
1568828995.7,286046996.7,N
1568829015.6,286046996.8,N
1568829035.4,286046996.1,N
1568829055.2,286046991.7,N
1568829075.1,286046995.0,N
1568829076.0,286046995.0,N
1568829095.8,286046999.9,N
1568829115.6,286047005.9,N
1568829135.5,286047007.0,N
1568829155.3,286047006.7,N
1568829175.2,286047006.7,N
1568829195.9,286047005.3,N
1568829215.7,286047006.5,N
1568829235.6,286047006.6,N
1568829255.4,286047009.2,N
1568829275.2,286047010.0,N
1568829295.1,286047010.1,N
1568829296.0,286047010.1,N
1568829315.8,286047009.7,N
1568829335.7,286047008.6,N
1568829355.5,286047010.1,N
1568829375.3,286047010.8,N
1568829395.2,286047006.3,N
1568829415.0,286047006.8,N
1568829415.9,286047006.8,N
1568829435.7,286047007.1,N
1568829455.6,286047005.0,N
1568829475.4,286047009.2,N
1568829495.3,286047007.6,N
1568829515.1,286047007.0,N
1568829516.0,286047007.0,N
1568829535.8,286047007.1,N
1568829555.7,286047008.8,N
1568829575.5,286047009.8,N
1568829595.3,286047015.2,Y
